Погода в Мельбурне

США     28°06′55″N   80°39′22″W
темп.,
°C
ветер,
м/с
пор.,
м/с
влажн.,
%
обл.,
%
осадки,
мм/ч
давл.,
гПа
погр.,
м
19 апреля, пн
пн1923:00+21з1192100 1.6 101413
02:00+21юз3893100 1.6 1013197
05:00+22юз289493 0.0 1012270
08:00+21юз3129465 3.8 1013358
11:00+27з5871100 2.8 10131154
14:00+24з4882100 6.3 1013664
17:00+24з358261 1.9 1012374
20:00+21св369535 3.8 1013233
20 апреля, вт
вт2023:00+20всв259761 3.8 1015197
02:00+21в249599 5.2 1014165
05:00+21всв239577 0.3 1014105
08:00+22вюв2692100 0.8 1015323
11:00+25ююв357971 1.8 1015802
14:00+27юз5772100 8.3 10141113
17:00+24зюз5108389 8.4 1012405
20:00+22з4109075 16.9 1013311
21 апреля, ср
ср2123:00+21зюз139690 2.9 1014102
02:00+20юз269885 3.5 1014183
05:00+20з379962 0.0 1014297
08:00+21з379124 0.0 1016360
11:00+23зсз357635 0.0 1017704
14:00+28з45460 0.0 10161627
17:00+29зсз56400 0.0 10141940
20:00+23ссв126578 0.0 101652
22 апреля, чт
чт2223:00+19зсз24712 0.0 101876
02:00+18сз36670 0.0 1017110
05:00+17с411755 0.0 1018344
08:00+19ссв49720 0.0 1019486
11:00+23ссв66573 0.0 10211017
14:00+24св54536 0.0 10201293
17:00+22всв55570 0.0 1019871
20:00+19св59690 0.0 1020392
23 апреля, пт
пт2323:00+19всв49750 0.0 1021256
02:00+18всв367920 0.0 1020128
05:00+18всв36815 0.0 1019117
08:00+20в377440 0.0 1021374
11:00+24в555780 0.0 10211443
14:00+24в556090 0.1 10211307
17:00+24в66644 0.2 10191038
20:00+22в6107672 0.2 1019564